Weather History for KYNG - November, 2014

Change the Weather History Date:

Saturday, November 22, 2014

  Actual Average Record
Temperature  
Mean Temperature 32 °F 39 °F  
Max Temperature 47 °F 46 °F 71 °F (1930)
Min Temperature 17 °F 32 °F 11 °F (1964)
Degree Days  
Heating Degree Days 33 26  
Month to date heating degree days 629 486  
Since 1 July heating degree days 1210 1107  
Cooling Degree Days 0 0  
Month to date cooling degree days 0 0  
Year to date cooling degree days 533 544  
Moisture  
Dew Point 24 °F    
Average Humidity 74    
Maximum Humidity 92    
Minimum Humidity 55    
Precipitation  
Precipitation 0.15 in 0.11 in 0.80 in (2011)
Month to date precipitation 1.84 2.32  
Year to date precipitation 36.39 35.06  
Snow  
Snow T in 0.20 in - ()
Month to date snowfall 8.6 1.9  
Since 1 July snowfall 8.6 2.7  
Since 1 September snowfall 8.6 2.7  
Snow Depth 3.00 in    
Sea Level Pressure  
Sea Level Pressure 30.23 in    
Wind  
Wind Speed 10 mph (South)    
Max Wind Speed 16 mph    
Max Gust Speed 24 mph    
Visibility 8 miles    
Events Rain , Snow    
T = Trace of Precipitation, MM = Missing Value Source: NWS Daily Summary

Daily Weather History Graph

Daily Weather History Graph

Search for Another Location

Airport or City:

Trip Planner

Search our weather history database for the weather conditions in past years. The results will help you decide how hot, cold, wet, or windy it might be!

Date:

Astronomy

Nov. 22, 2014 Rise Set
Actual Time 7:19 AM EST 4:58 PM EST
Civil Twilight 6:48 AM EST 5:28 PM EST
Nautical Twilight 6:15 AM EST 6:02 PM EST
Astronomical Twilight 5:42 AM EST 6:35 PM EST
Moon 7:13 AM EST (11/22) 5:28 PM EST (11/22)
Length of Visible Light 10h 39m
Length of Day
9h 39m
New Moon, 0% of the Moon is Illuminated
Nov 22
New Moon
Nov 29
First Quarter
Dec 6
Full
Dec 14
Last Quarter
Dec 21
New

Hourly Weather History & Observations

Time (EST) Temp. Windchill Dew Point Humidity Pressure Visibility Wind Dir Wind Speed Gust Speed Precip Events Conditions
12:51 AM 18.0 °F 8.7 °F 7.0 °F 62% 30.45 in 10.0 mi SSE 6.9 mph - N/A   Clear
1:51 AM 19.0 °F 9.0 °F 8.1 °F 62% 30.43 in 10.0 mi South 8.1 mph - N/A   Partly Cloudy
2:51 AM 19.9 °F 9.3 °F 8.1 °F 60% 30.41 in 10.0 mi SSE 9.2 mph - N/A   Scattered Clouds
3:51 AM 21.0 °F 9.3 °F 9.0 °F 60% 30.38 in 10.0 mi SSE 11.5 mph - N/A   Mostly Cloudy
4:51 AM 21.9 °F 11.0 °F 9.0 °F 58% 30.36 in 10.0 mi South 10.4 mph - N/A   Overcast
5:51 AM 21.9 °F 11.0 °F 9.0 °F 58% 30.34 in 10.0 mi South 10.4 mph - N/A   Scattered Clouds
6:51 AM 23.0 °F 13.9 °F 10.0 °F 58% 30.33 in 10.0 mi South 8.1 mph - N/A   Overcast
7:51 AM 25.0 °F 15.5 °F 10.9 °F 55% 30.31 in 10.0 mi SSE 9.2 mph - N/A   Mostly Cloudy
8:28 AM 27.0 °F 16.7 °F 12.0 °F 53% 30.24 in 3.0 mi South 11.5 mph - 0.00 in Rain , Snow Light Freezing Rain
8:51 AM 27.0 °F 17.3 °F 16.0 °F 63% 30.30 in 3.0 mi South 10.4 mph - 0.00 in Rain Light Freezing Rain
9:08 AM 27.0 °F 18.7 °F 19.9 °F 75% 30.25 in 1.5 mi South 8.1 mph - 0.01 in Rain Light Freezing Rain
9:51 AM 28.0 °F 18.6 °F 26.1 °F 92% 30.28 in 1.5 mi South 10.4 mph - 0.06 in Rain Light Freezing Rain
10:22 AM 30.0 °F 21.7 °F 27.0 °F 88% 30.22 in 3.0 mi South 9.2 mph - 0.02 in Rain Light Freezing Rain
10:40 AM 30.9 °F 23.5 °F 28.0 °F 89% 30.21 in 1.5 mi South 8.1 mph - 0.03 in Rain Light Freezing Rain
10:51 AM 32.0 °F 23.0 °F 28.9 °F 88% 30.25 in 1.5 mi South 11.5 mph - 0.05 in Rain Light Rain
11:23 AM 33.1 °F 25.5 °F 30.9 °F 92% 30.18 in 3.0 mi South 9.2 mph - 0.03 in   Overcast
11:51 AM 34.0 °F 26.0 °F 32.0 °F 92% 30.21 in 5.0 mi South 10.4 mph - 0.03 in Rain Light Rain
12:51 PM 36.0 °F 27.5 °F 35.1 °F 97% 30.19 in 5.0 mi South 12.7 mph - 0.00 in   Overcast
1:38 PM 39.0 °F 31.8 °F 36.0 °F 89% 30.12 in 8.0 mi SSW 11.5 mph - 0.00 in   Overcast
1:51 PM 39.0 °F 31.8 °F 36.0 °F 89% 30.16 in 8.0 mi SSW 11.5 mph - 0.00 in   Overcast
2:51 PM 39.9 °F 32.9 °F 36.0 °F 86% 30.14 in 10.0 mi SSW 11.5 mph - N/A   Overcast
3:51 PM 41.0 °F 34.3 °F 34.0 °F 76% 30.13 in 10.0 mi SSW 11.5 mph 20.7 mph N/A   Overcast
4:51 PM 42.1 °F 36.6 °F 33.1 °F 70% 30.12 in 10.0 mi South 9.2 mph - N/A   Overcast
5:51 PM 42.1 °F 37.1 °F 33.1 °F 70% 30.13 in 10.0 mi SSW 8.1 mph - N/A   Overcast
6:51 PM 42.1 °F 36.1 °F 33.1 °F 70% 30.11 in 10.0 mi South 10.4 mph - N/A   Overcast
7:51 PM 43.0 °F 36.0 °F 32.0 °F 65% 30.09 in 10.0 mi South 13.8 mph - 0.00 in   Overcast
8:51 PM 45.0 °F 40.1 °F 32.0 °F 60% 30.09 in 10.0 mi South 9.2 mph - N/A   Overcast
9:51 PM 46.0 °F 40.6 °F 34.0 °F 63% 30.08 in 10.0 mi SSW 11.5 mph - N/A   Mostly Cloudy
10:51 PM 46.9 °F - 33.1 °F 59% 30.07 in 10.0 mi SSW 12.7 mph - 0.00 in   Overcast
11:51 PM 46.0 °F 41.0 °F 34.0 °F 63% 30.08 in 10.0 mi SSW 10.4 mph - 0.01 in   Overcast